User: anonymous   Login
Location: Columbia
(38.9520°N, 92.3340°W)
Time: 18:53:21
(UTC-05:00)
Language:

Cosmos 1633 - Orbit

View from above orbital plane
View from above orbital plane
View from above satellite
View from above satellite

Ground track
Ground track

The orbit data is extracted from the following two-line orbital elements,

1 15592U 85020A   16119.76654057  .00002510  00000-0  93966-4 0  9990
2 15592  82.5406  14.0112 0013757 194.4670 165.6177 15.26740432701029
Epoch (UTC): 28 April 2016 18:23:49
Eccentricity: 0.0013757
inclination: 82.5406°
perigee height: 476 km
apogee height: 495 km
right ascension of ascending node: 14.0112°
argument of perigee: 194.4670°
revolutions per day: 15.26740432
mean anomaly at epoch: 165.6177°
orbit number at epoch: 70102

The dashed part of the orbit path shows where the satellite is in the earth's shadow,  

DLR